Time,TemperatureF,DewpointF,PressureIn,WindDirection,WindDirectionDegrees,WindSpeedMPH,WindSpeedGustMPH,Humidity,HourlyPrecipIn,Conditions,Clouds,dailyrainin,SoftwareType,DateUTC
2013-03-07 00:01:00,28.0,25.0,17.53,ENE,74,0.0,0.0,88,0.00,,,0.17,,2013-03-07 06:01:00,
2013-03-07 00:11:00,28.0,25.0,17.53,ENE,74,0.0,0.0,88,0.00,,,0.17,,2013-03-07 06:11:00,
2013-03-07 00:21:00,27.0,24.0,-100.00,ENE,74,0.0,0.0,88,0.00,,,0.15,,2013-03-07 06:21:00,
2013-03-07 00:32:00,27.0,24.0,-100.00,ENE,74,0.0,0.0,89,0.00,,,0.15,,2013-03-07 06:32:00,
2013-03-07 00:42:00,27.0,24.0,1.35,ENE,74,0.0,0.0,89,0.00,,,0.15,,2013-03-07 06:42:00,
2013-03-07 00:52:00,27.0,24.0,1.35,ENE,74,0.0,0.0,89,0.00,,,0.15,,2013-03-07 06:52:00,
2013-03-07 01:01:00,27.0,24.0,3.30,ENE,74,0.0,2.0,90,0.00,,,0.15,,2013-03-07 07:01:00,
2013-03-07 01:11:00,27.0,24.0,3.30,ENE,74,0.0,2.0,90,0.00,,,0.15,,2013-03-07 07:11:00,
2013-03-07 01:21:00,27.0,24.0,3.30,ENE,74,0.0,0.0,90,0.00,,,0.13,,2013-03-07 07:21:00,
2013-03-07 01:32:00,27.0,24.0,3.30,ENE,74,0.0,2.0,90,0.00,,,0.13,,2013-03-07 07:32:00,
2013-03-07 01:42:00,27.0,24.0,3.30,ENE,74,0.0,2.0,90,0.00,,,0.13,,2013-03-07 07:42:00,
2013-03-07 01:53:00,26.0,23.0,3.30,ENE,74,0.0,0.0,90,0.00,,,0.13,,2013-03-07 07:53:00,
2013-03-07 02:02:00,26.0,23.0,3.30,ENE,74,0.0,0.0,90,0.00,,,0.13,,2013-03-07 08:02:00,
2013-03-07 02:12:00,26.0,23.0,3.30,ENE,74,0.0,0.0,90,0.00,,,0.13,,2013-03-07 08:12:00,
2013-03-07 02:22:00,26.0,23.0,3.30,ENE,74,0.0,0.0,90,0.00,,,0.12,,2013-03-07 08:22:00,
2013-03-07 02:33:00,26.0,23.0,3.30,ENE,74,0.0,0.0,90,0.00,,,0.12,,2013-03-07 08:33:00,
2013-03-07 02:43:00,26.0,23.0,3.30,ENE,74,0.0,0.0,90,0.00,,,0.12,,2013-03-07 08:43:00,
2013-03-07 02:54:00,25.0,22.0,3.30,ENE,74,0.0,0.0,90,0.00,,,0.12,,2013-03-07 08:54:00,
2013-03-07 03:03:00,25.0,22.0,3.29,ENE,74,0.0,0.0,90,0.00,,,0.12,,2013-03-07 09:03:00,
2013-03-07 03:13:00,25.0,22.0,3.29,ENE,74,0.0,0.0,90,0.00,,,0.12,,2013-03-07 09:13:00,
2013-03-07 03:23:00,25.0,22.0,3.60,ENE,74,0.0,0.0,90,0.00,,,0.11,,2013-03-07 09:23:00,
2013-03-07 03:32:00,25.0,23.0,2.30,ENE,74,0.0,0.0,91,0.00,,,0.11,,2013-03-07 09:32:00,
2013-03-07 03:42:00,25.0,23.0,2.30,ENE,74,0.0,0.0,91,0.00,,,0.11,,2013-03-07 09:42:00,
2013-03-07 03:53:00,25.0,23.0,-100.00,ENE,74,0.0,0.0,91,0.00,,,0.11,,2013-03-07 09:53:00,
2013-03-07 04:02:00,26.0,24.0,-100.00,ENE,74,0.0,1.0,92,0.00,,,0.11,,2013-03-07 10:02:00,
2013-03-07 04:12:00,26.0,24.0,-100.00,ENE,74,0.0,1.0,92,0.00,,,0.11,,2013-03-07 10:12:00,
2013-03-07 04:23:00,25.0,23.0,5.78,ENE,74,0.0,0.0,92,0.00,,,0.10,,2013-03-07 10:23:00,
2013-03-07 04:33:00,25.0,23.0,-100.00,ENE,74,0.0,0.0,92,0.00,,,0.10,,2013-03-07 10:33:00,
2013-03-07 04:42:00,25.0,23.0,-100.00,ENE,74,0.0,0.0,92,0.00,,,0.10,,2013-03-07 10:42:00,
2013-03-07 04:53:00,25.0,23.0,29.56,ENE,74,0.0,0.0,92,0.00,,,0.10,,2013-03-07 10:53:00,
2013-03-07 05:02:00,25.0,23.0,6.32,ENE,74,0.0,0.0,92,0.00,,,0.10,,2013-03-07 11:02:00,
2013-03-07 05:12:00,25.0,23.0,6.32,ENE,74,0.0,0.0,92,0.00,,,0.10,,2013-03-07 11:12:00,
2013-03-07 05:23:00,25.0,23.0,3.30,ENE,74,0.0,0.0,92,0.00,,,0.10,,2013-03-07 11:23:00,
2013-03-07 05:33:00,25.0,23.0,3.30,ENE,74,0.0,0.0,92,0.00,,,0.10,,2013-03-07 11:33:00,
2013-03-07 05:42:00,25.0,23.0,3.30,ENE,74,0.0,0.0,92,0.00,,,0.10,,2013-03-07 11:42:00,
2013-03-07 05:54:00,25.0,23.0,3.30,ENE,74,0.0,0.0,92,0.00,,,0.10,,2013-03-07 11:54:00,
2013-03-07 06:02:00,25.0,23.0,3.30,ENE,74,0.0,0.0,92,0.00,,,0.10,,2013-03-07 12:02:00,
2013-03-07 06:12:00,25.0,23.0,3.30,ENE,74,0.0,0.0,92,0.00,,,0.10,,2013-03-07 12:12:00,
2013-03-07 06:22:00,25.0,23.0,3.30,ENE,74,0.0,0.0,93,0.00,,,0.10,,2013-03-07 12:22:00,
2013-03-07 06:33:00,26.0,24.0,3.30,ENE,74,0.0,0.0,93,0.00,,,0.10,,2013-03-07 12:33:00,
2013-03-07 06:42:00,26.0,24.0,3.30,ENE,74,0.0,0.0,93,0.00,,,0.10,,2013-03-07 12:42:00,
2013-03-07 06:53:00,26.0,24.0,3.30,ENE,74,0.0,0.0,93,0.00,,,0.10,,2013-03-07 12:53:00,
2013-03-07 07:02:00,27.0,25.0,3.30,ENE,74,0.0,0.0,93,0.00,,,0.10,,2013-03-07 13:02:00,
2013-03-07 07:12:00,27.0,25.0,3.30,ENE,74,0.0,0.0,93,0.00,,,0.10,,2013-03-07 13:12:00,
2013-03-07 07:22:00,27.0,26.0,3.30,NNW,328,0.0,0.0,94,0.00,,,0.10,,2013-03-07 13:22:00,
2013-03-07 07:32:00,28.0,27.0,3.30,WSW,250,0.0,1.0,94,0.00,,,0.10,,2013-03-07 13:32:00,
2013-03-07 07:42:00,28.0,27.0,3.30,WSW,250,0.0,1.0,94,0.00,,,0.10,,2013-03-07 13:42:00,
2013-03-07 07:53:00,30.0,28.0,3.30,SW,222,1.0,4.0,94,0.00,,,0.10,,2013-03-07 13:53:00,
2013-03-07 08:02:00,31.0,29.0,3.30,NNW,341,2.0,7.0,91,0.00,,,0.10,,2013-03-07 14:02:00,
2013-03-07 08:12:00,31.0,29.0,3.30,NNW,341,2.0,7.0,91,0.00,,,0.10,,2013-03-07 14:12:00,
2013-03-07 08:22:00,32.0,29.0,3.30,ENE,76,2.0,7.0,90,0.00,,,0.10,,2013-03-07 14:22:00,
2013-03-07 08:42:00,33.0,30.0,3.30,ENE,66,0.0,9.0,87,0.00,,,0.10,,2013-03-07 14:42:00,
2013-03-07 08:54:00,33.0,29.0,3.30,NE,49,1.0,6.0,86,0.00,,,0.10,,2013-03-07 14:54:00,
2013-03-07 09:02:00,35.0,31.0,3.30,North,350,2.0,4.0,86,0.00,,,0.10,,2013-03-07 15:02:00,
2013-03-07 09:12:00,35.0,31.0,3.30,North,350,2.0,4.0,86,0.00,,,0.10,,2013-03-07 15:12:00,
2013-03-07 09:22:00,36.0,31.0,3.30,NNW,347,0.0,4.0,81,0.00,,,0.09,,2013-03-07 15:22:00,
2013-03-07 09:32:00,37.0,32.0,3.40,ENE,65,1.0,4.0,82,0.00,,,0.09,,2013-03-07 15:32:00,
2013-03-07 09:42:00,37.0,32.0,3.40,ENE,65,1.0,4.0,82,0.00,,,0.09,,2013-03-07 15:42:00,
2013-03-07 09:53:00,38.0,32.0,3.30,ENE,61,1.0,5.0,78,0.00,,,0.09,,2013-03-07 15:53:00,
2013-03-07 10:02:00,40.0,32.0,3.30,East,91,1.0,5.0,74,0.00,,,0.09,,2013-03-07 16:02:00,
2013-03-07 10:12:00,40.0,32.0,3.30,East,91,1.0,5.0,74,0.00,,,0.09,,2013-03-07 16:12:00,
2013-03-07 10:23:00,41.0,33.0,25.73,North,355,1.0,6.0,72,0.00,,,0.06,,2013-03-07 16:23:00,
2013-03-07 10:32:00,42.0,33.0,3.30,NE,50,2.0,7.0,70,0.00,,,0.06,,2013-03-07 16:32:00,
2013-03-07 10:42:00,42.0,33.0,3.30,NE,50,2.0,7.0,70,0.00,,,0.06,,2013-03-07 16:42:00,
2013-03-07 10:53:00,44.0,34.0,26.78,ESE,107,2.0,7.0,69,0.00,,,0.06,,2013-03-07 16:53:00,
2013-03-07 11:02:00,45.0,34.0,-100.00,East,101,1.0,6.0,66,0.00,,,0.06,,2013-03-07 17:02:00,
2013-03-07 11:12:00,45.0,34.0,-100.00,East,101,1.0,6.0,66,0.00,,,0.06,,2013-03-07 17:12:00,
2013-03-07 11:22:00,45.0,34.0,25.68,ESE,105,1.0,10.0,65,0.00,,,0.04,,2013-03-07 17:22:00,
2013-03-07 11:32:00,46.0,36.0,25.53,SE,134,1.0,6.0,67,0.00,,,0.04,,2013-03-07 17:32:00,
2013-03-07 11:43:00,46.0,36.0,25.53,SE,134,1.0,6.0,67,0.00,,,0.04,,2013-03-07 17:43:00,
2013-03-07 12:03:00,47.0,34.0,3.30,East,85,4.0,9.0,61,0.00,,,0.04,,2013-03-07 18:03:00,
2013-03-07 12:12:00,47.0,34.0,3.30,East,85,4.0,9.0,61,0.00,,,0.04,,2013-03-07 18:12:00,
2013-03-07 12:22:00,47.0,35.0,-100.00,ENE,74,2.0,7.0,62,0.00,,,0.02,,2013-03-07 18:22:00,
2013-03-07 12:32:00,48.0,35.0,-100.00,ENE,59,2.0,7.0,60,0.00,,,0.02,,2013-03-07 18:32:00,
2013-03-07 12:42:00,48.0,35.0,-100.00,ENE,59,2.0,7.0,60,0.00,,,0.02,,2013-03-07 18:42:00,
2013-03-07 12:52:00,48.0,35.0,29.79,NE,40,1.0,8.0,60,0.00,,,0.02,,2013-03-07 18:52:00,
2013-03-07 13:02:00,50.0,36.0,1.75,ENE,61,1.0,7.0,58,0.00,,,0.02,,2013-03-07 19:02:00,
2013-03-07 13:12:00,51.0,36.0,5.87,West,261,1.0,5.0,57,0.00,,,0.01,,2013-03-07 19:12:00,
2013-03-07 13:23:00,51.0,36.0,5.87,West,261,1.0,5.0,57,0.00,,,0.01,,2013-03-07 19:23:00,
2013-03-07 13:34:00,50.0,37.0,3.11,NNE,16,0.0,5.0,60,0.00,,,0.01,,2013-03-07 19:34:00,
2013-03-07 13:43:00,50.0,37.0,3.11,NNE,16,0.0,5.0,60,0.00,,,0.01,,2013-03-07 19:43:00,
2013-03-07 13:53:00,51.0,37.0,6.25,ENE,71,2.0,7.0,58,0.00,,,0.01,,2013-03-07 19:53:00,
2013-03-07 14:02:00,50.0,36.0,3.30,SW,230,1.0,6.0,58,0.00,,,0.01,,2013-03-07 20:02:00,
2013-03-07 14:13:00,50.0,36.0,3.30,SW,230,1.0,6.0,58,0.00,,,0.01,,2013-03-07 20:13:00,
2013-03-07 14:22:00,51.0,36.0,3.30,WNW,290,2.0,8.0,56,0.00,,,0.00,,2013-03-07 20:22:00,
2013-03-07 14:32:00,53.0,37.0,26.62,NNE,14,1.0,8.0,55,0.00,,,0.00,,2013-03-07 20:32:00,
2013-03-07 14:42:00,53.0,37.0,26.62,NNE,14,1.0,8.0,55,0.00,,,0.00,,2013-03-07 20:42:00,
2013-03-07 14:54:00,53.0,36.0,-100.00,NNW,347,0.0,4.0,53,0.00,,,0.00,,2013-03-07 20:54:00,
2013-03-07 15:02:00,54.0,36.0,3.30,West,279,2.0,7.0,51,0.00,,,0.00,,2013-03-07 21:02:00,
2013-03-07 15:12:00,54.0,36.0,3.30,West,279,2.0,7.0,51,0.00,,,0.00,,2013-03-07 21:12:00,
2013-03-07 15:22:00,52.0,36.0,3.30,WNW,288,1.0,5.0,54,0.00,,,0.00,,2013-03-07 21:22:00,
2013-03-07 15:32:00,52.0,36.0,26.62,WNW,302,3.0,7.0,54,0.00,,,0.00,,2013-03-07 21:32:00,
2013-03-07 15:42:00,52.0,36.0,26.62,WNW,302,3.0,7.0,54,0.00,,,0.00,,2013-03-07 21:42:00,
2013-03-07 15:53:00,52.0,36.0,-100.00,NE,43,1.0,5.0,54,0.00,,,0.00,,2013-03-07 21:53:00,
2013-03-07 16:01:00,53.0,37.0,26.79,SE,127,0.0,4.0,55,0.00,,,0.00,,2013-03-07 22:01:00,
2013-03-07 16:12:00,53.0,37.0,26.79,SE,127,0.0,4.0,55,0.00,,,0.00,,2013-03-07 22:12:00,
2013-03-07 16:22:00,52.0,36.0,3.30,ENE,60,0.0,4.0,55,0.00,,,0.00,,2013-03-07 22:22:00,
2013-03-07 16:32:00,52.0,36.0,3.30,East,96,1.0,5.0,55,0.00,,,0.00,,2013-03-07 22:32:00,
2013-03-07 16:42:00,52.0,36.0,3.30,East,96,1.0,5.0,55,0.00,,,0.00,,2013-03-07 22:42:00,
2013-03-07 17:02:00,50.0,36.0,6.30,North,355,0.0,3.0,58,0.00,,,0.00,,2013-03-07 23:02:00,
2013-03-07 17:12:00,50.0,36.0,6.30,North,355,0.0,3.0,58,0.00,,,0.00,,2013-03-07 23:12:00,
2013-03-07 17:22:00,48.0,35.0,-100.00,East,80,0.0,3.0,60,0.00,,,0.00,,2013-03-07 23:22:00,
2013-03-07 17:33:00,47.0,34.0,3.30,NE,42,0.0,3.0,61,0.00,,,0.00,,2013-03-07 23:33:00,
2013-03-07 17:43:00,47.0,34.0,3.30,NE,42,0.0,3.0,61,0.00,,,0.00,,2013-03-07 23:43:00,
2013-03-07 17:54:00,45.0,34.0,3.30,NE,44,0.0,3.0,64,0.00,,,0.00,,2013-03-07 23:54:00,
2013-03-07 18:03:00,43.0,32.0,3.30,NE,38,0.0,1.0,66,0.00,,,0.00,,2013-03-08 00:03:00,
2013-03-07 18:12:00,43.0,32.0,3.30,NE,38,0.0,1.0,66,0.00,,,0.00,,2013-03-08 00:12:00,
2013-03-07 18:23:00,41.0,32.0,3.30,NE,38,0.0,2.0,69,0.00,,,0.00,,2013-03-08 00:23:00,
2013-03-07 18:33:00,40.0,31.0,6.73,NE,38,0.0,0.0,71,0.00,,,0.00,,2013-03-08 00:33:00,
2013-03-07 18:43:00,40.0,31.0,6.73,NE,38,0.0,0.0,71,0.00,,,0.00,,2013-03-08 00:43:00,
2013-03-07 18:53:00,39.0,31.0,27.78,NE,38,0.0,2.0,72,0.00,,,0.00,,2013-03-08 00:53:00,
2013-03-07 19:02:00,38.0,30.0,29.79,NE,38,0.0,0.0,74,0.00,,,0.00,,2013-03-08 01:02:00,
2013-03-07 19:11:00,38.0,30.0,29.79,NE,38,0.0,0.0,74,0.00,,,0.00,,2013-03-08 01:11:00,
2013-03-07 19:21:00,37.0,30.0,6.27,NE,38,0.0,1.0,76,0.00,,,0.00,,2013-03-08 01:21:00,
2013-03-07 19:32:00,37.0,32.0,25.63,NE,38,0.0,0.0,82,0.00,,,0.00,,2013-03-08 01:32:00,
2013-03-07 19:42:00,37.0,32.0,25.63,NE,38,0.0,0.0,82,0.00,,,0.00,,2013-03-08 01:42:00,
2013-03-07 19:52:00,36.0,30.0,6.20,NE,38,0.0,2.0,79,0.00,,,0.00,,2013-03-08 01:52:00,
2013-03-07 20:01:00,36.0,30.0,6.25,NE,38,0.0,6.0,80,0.00,,,0.00,,2013-03-08 02:01:00,
2013-03-07 20:11:00,35.0,29.0,3.30,NE,52,0.0,5.0,80,0.00,,,0.00,,2013-03-08 02:11:00,
2013-03-07 20:21:00,35.0,29.0,3.30,NE,52,0.0,5.0,80,0.00,,,0.00,,2013-03-08 02:21:00,
2013-03-07 20:32:00,35.0,29.0,3.30,NNE,28,0.0,4.0,80,0.00,,,0.00,,2013-03-08 02:32:00,
2013-03-07 20:42:00,35.0,29.0,3.30,NNE,28,0.0,4.0,80,0.00,,,0.00,,2013-03-08 02:42:00,
2013-03-07 20:53:00,35.0,29.0,3.30,ESE,105,1.0,3.0,80,0.00,,,0.00,,2013-03-08 02:53:00,
2013-03-07 21:02:00,35.0,29.0,3.30,NE,42,0.0,5.0,80,0.00,,,0.00,,2013-03-08 03:02:00,
2013-03-07 21:12:00,35.0,29.0,3.30,NE,42,0.0,5.0,80,0.00,,,0.00,,2013-03-08 03:12:00,
2013-03-07 21:22:00,35.0,30.0,3.30,NE,47,0.0,2.0,81,0.00,,,0.00,,2013-03-08 03:22:00,
2013-03-07 21:32:00,35.0,30.0,3.30,East,90,0.0,5.0,81,0.00,,,0.00,,2013-03-08 03:32:00,
2013-03-07 21:42:00,35.0,30.0,3.30,East,90,0.0,5.0,81,0.00,,,0.00,,2013-03-08 03:42:00,
2013-03-07 21:53:00,34.0,29.0,29.79,NE,51,2.0,5.0,82,0.00,,,0.00,,2013-03-08 03:53:00,
2013-03-07 22:01:00,34.0,29.0,3.30,ENE,73,1.0,4.0,82,0.00,,,0.00,,2013-03-08 04:01:00,
2013-03-07 22:11:00,34.0,29.0,3.30,ENE,73,1.0,4.0,82,0.00,,,0.00,,2013-03-08 04:11:00,
2013-03-07 22:21:00,34.0,29.0,3.30,NE,51,0.0,3.0,82,0.00,,,0.00,,2013-03-08 04:21:00,
2013-03-07 22:32:00,33.0,28.0,-100.00,NE,42,1.0,3.0,83,0.00,,,0.00,,2013-03-08 04:32:00,
2013-03-07 22:42:00,33.0,28.0,-100.00,NE,42,1.0,3.0,83,0.00,,,0.00,,2013-03-08 04:42:00,
2013-03-07 22:52:00,33.0,28.0,21.80,NE,46,0.0,3.0,83,0.00,,,0.00,,2013-03-08 04:52:00,
2013-03-07 23:02:00,33.0,29.0,29.36,East,92,0.0,2.0,84,0.00,,,0.00,,2013-03-08 05:02:00,
2013-03-07 23:12:00,33.0,29.0,29.36,East,92,0.0,2.0,84,0.00,,,0.00,,2013-03-08 05:12:00,
2013-03-07 23:22:00,32.0,28.0,29.37,East,85,0.0,2.0,84,0.00,,,0.00,,2013-03-08 05:22:00,
2013-03-07 23:32:00,32.0,28.0,-100.00,ENE,62,0.0,3.0,85,0.00,,,0.00,,2013-03-08 05:32:00,
2013-03-07 23:42:00,32.0,28.0,-100.00,ENE,62,0.0,3.0,85,0.00,,,0.00,,2013-03-08 05:42:00,
2013-03-07 23:52:00,32.0,28.0,-100.00,ENE,62,0.0,3.0,85,0.00,,,0.00,,2013-03-08 05:52:00,